User: anonymous   Login
Location: Unspecified
(0.0000°N, 0.0000°E)
Time: 02:58:49
(UTC+00:00)
Language:

USA 274 DEB - Orbit

View from above orbital plane
View from above orbital plane
View from above satellite
View from above satellite

Ground track
Ground track

The orbit data is extracted from the following two-line orbital elements,

1 42065U 17011B   17266.11719777 0.00000000  00000-0  00000-0 0    02
2 42065  63.4522 348.0940 0109000 178.3047 181.6953 13.40734158    08
Epoch (UTC): 23 September 2017 02:48:45
Eccentricity: 0.0109000
inclination: 63.4522°
perigee height: 1025 km
apogee height: 1188 km
right ascension of ascending node: 348.0940°
argument of perigee: 178.3047°
revolutions per day: 13.40734158
mean anomaly at epoch: 181.6953°
orbit number at epoch: 0

The dashed part of the orbit path shows where the satellite is in the earth's shadow,  

DLR